Wind_Speed
4 5 7 6 6 6 6 9 11 11 9 7 5 5 5 6 6 6 6 6 5 5 5 5 4 4 4 4 4 4 4 4 5 6 6 7 8 9 9 10 10 11 11 11 12 12 12 12 12
3 3 4 4 3 4 7 8 11 13 11 8 6 5 5 6 6 6 6 6 6 5 4 4 4 4 4 4 4 4 5 6 6 7 7 8 9 9 10 10 11 11 11 11 11 11 12 12 12
4 2 3 2 0 3 7 8 11 14 14 13 10 9 8 7 6 6 6 7 6 5 5 5 5 5 5 5 6 6 7 7 8 8 9 9 10 10 11 12 12 12 12 12 12 12 12 12 12
6 3 2 2 2 3 6 10 12 15 16 16 14 12 10 8 7 7 7 7 6 5 6 6 6 6 7 7 8 9 9 10 10 11 11 12 12 13 13 14 14 14 14 14 13 13 13 13 13
7 6 5 5 3 3 6 11 14 17 19 18 17 15 11 8 7 8 8 8 7 7 7 8 8 9 9 10 11 11 11 12 12 13 13 13 14 15 15 16 16 16 16 16 15 15 14 15 15
10 8 7 6 5 4 5 10 18 21 22 21 21 20 15 10 8 9 9 9 8 8 9 9 11 11 12 13 13 13 13 14 14 14 15 15 15 16 17 17 18 18 19 19 18 17 17 17 17
11 8 8 9 8 6 7 13 20 24 25 24 23 22 20 15 10 9 9 10 9 9 10 11 12 12 13 14 15 15 15 15 16 16 17 17 18 18 18 19 19 20 20 21 20 20 20 20 20
12 9 11 13 12 8 11 16 22 25 27 27 26 24 23 17 13 10 10 12 11 11 12 13 14 14 15 17 17 17 17 17 18 18 19 19 20 20 20 21 22 22 22 22 22 23 22 23 23
14 11 16 17 16 14 14 18 23 27 29 29 28 27 25 22 18 14 12 13 13 14 15 16 16 16 17 18 19 19 19 19 19 20 21 22 22 22 22 23 23 23 23 23 23 24 24 25 25
16 14 19 22 21 19 18 21 25 29 31 32 32 32 30 25 22 19 17 16 17 17 18 19 18 19 20 21 21 22 22 22 22 23 23 24 25 25 24 24 25 25 25 25 25 24 25 26 27
18 18 22 23 22 22 22 24 27 31 33 34 35 34 32 30 26 21 21 21 21 21 21 22 22 22 23 24 24 25 25 25 25 25 26 26 27 27 27 27 27 27 28 28 28 27 25 25 27
20 21 25 25 23 24 25 26 28 31 34 35 35 34 31 28 27 27 25 25 25 25 25 25 26 26 26 26 26 27 27 27 28 28 28 29 29 30 30 29 29 29 29 30 30 30 29 27 26
22 24 25 27 26 26 27 27 29 31 32 32 32 30 29 28 28 28 28 28 27 28 27 28 29 28 28 28 28 29 29 29 29 30 31 31 32 32 32 31 31 32 32 32 32 32 31 30 29
20 22 24 25 26 26 27 26 26 26 25 26 26 26 27 26 26 27 28 28 28 28 28 29 28 28 29 30 30 31 32 32 32 33 34 34 34 34 34 34 34 34 34 33 33 32 32 31 30
19 20 21 22 23 24 23 22 20 20 20 21 22 23 24 24 24 25 26 26 26 26 27 27 27 28 29 30 31 33 33 35 35 36 36 37 36 36 35 35 35 35 36 35 34 34 33 32 32
18 18 18 19 19 20 19 19 18 18 18 19 20 21 22 22 22 23 23 24 24 24 25 26 27 28 30 31 33 34 35 37 38 38 39 38 38 37 37 36 36 36 36 36 36 36 35 34 33
13 13 13 16 17 19 20 20 19 19 19 18 18 18 19 20 20 21 22 22 23 24 25 27 28 30 32 33 35 36 38 39 39 39 39 39 38 38 38 37 37 37 37 37 37 37 36 35 34
9 8 10 12 15 18 20 19 19 19 19 17 15 14 15 16 17 19 20 21 22 24 26 28 30 32 33 35 36 37 38 39 39 39 39 39 39 39 39 39 38 38 37 37 37 37 36 36 35
8 9 8 9 11 14 16 17 18 18 17 13 10 10 12 14 16 17 19 21 23 25 27 29 31 32 34 35 36 37 38 38 39 39 38 38 37 38 38 39 39 38 38 38 37 37 36 36 34
9 8 9 11 12 12 15 17 16 16 15 10 8 8 10 12 14 16 18 21 22 24 25 27 29 31 32 34 35 36 36 36 37 37 37 36 36 36 36 37 37 37 37 37 37 37 36 35 35
7 7 9 11 14 15 17 17 16 14 10 8 7 7 8 10 13 15 17 18 20 21 23 24 26 28 30 32 33 34 35 35 36 36 36 35 34 33 33 34 35 35 35 35 35 35 35 34 34
7 9 10 12 15 16 18 18 15 11 5 2 3 4 6 9 11 13 15 17 19 20 22 23 24 26 28 29 31 32 32 33 33 33 34 34 34 33 33 32 32 32 32 33 33 33 33 33 32
9 9 10 11 12 14 16 15 11 7 2 1 1 3 6 9 12 14 16 18 20 21 22 24 25 26 28 29 30 31 32 32 33 33 34 34 34 34 33 32 30 30 30 30 30 30 30 31 31
8 8 9 10 10 11 13 13 12 6 4 3 4 6 9 12 14 16 19 21 22 24 26 27 28 30 31 32 33 33 34 34 34 35 35 35 36 36 35 34 33 31 30 30 30 30 29 29 29
8 8 9 9 9 9 11 13 13 11 8 7 8 10 13 16 18 20 22 24 26 28 30 31 32 33 34 35 35 36 36 36 36 37 37 37 38 38 38 38 37 35 33 32 31 31 31 30 29
7 8 8 8 8 9 9 12 12 12 10 10 12 14 17 19 21 23 25 28 30 31 33 34 35 36 36 37 37 37 37 37 38 38 39 39 39 40 40 40 39 38 36 34 33 33 32 32 32
7 7 8 8 8 7 8 10 11 12 12 13 16 18 20 22 24 26 28 31 33 35 36 37 38 38 38 38 37 37 38 38 39 39 40 40 40 40 41 40 40 39 38 37 36 35 34 34 34
9 8 8 7 7 7 8 10 12 13 15 16 19 21 23 24 26 28 30 33 35 36 38 39 39 39 38 38 38 38 39 39 39 39 40 40 40 40 40 40 40 40 39 39 38 38 38 37 37
8 9 8 8 9 10 12 13 14 16 17 19 20 22 24 26 28 30 32 34 36 37 39 39 39 39 38 38 39 39 40 40 40 40 40 41 40 40 40 40 40 40 40 40 40 40 40 40 40
8 10 10 10 11 13 15 16 17 18 19 20 22 24 25 27 28 31 33 36 37 38 39 39 38 38 38 39 39 40 41 41 41 41 41 41 40 40 40 40 40 40 40 41 42 42 43 43 43
Wind_Direction
68 85 84 62 45 35 27 19 9 3 4 9 351 334 347 355 348 342 337 330 340 359 351 329 311 304 297 293 295 303 315 326 333 335 335 335 335 334 334 334 334 337 340 342 343 345 347 348 351
32 62 75 66 41 7 0 2 353 346 348 346 330 325 336 340 336 331 326 329 347 355 343 330 314 304 298 294 298 308 316 321 325 327 326 326 325 323 321 320 320 321 324 325 326 329 332 334 336
337 6 92 95 34 342 344 344 338 332 334 335 330 328 326 327 321 323 325 334 343 336 324 319 312 305 301 300 304 307 309 312 315 315 315 314 312 310 308 308 307 307 308 309 309 311 314 317 320
312 292 183 201 274 334 336 324 324 317 320 325 322 322 320 319 314 314 318 324 320 307 304 305 301 298 298 302 307 308 307 306 306 306 306 306 304 302 300 298 297 297 297 296 296 296 296 299 301
299 281 235 229 257 307 319 313 304 302 308 315 316 317 319 321 313 308 309 308 303 296 297 299 296 295 295 298 302 302 301 301 302 303 303 302 301 300 299 297 294 292 290 289 288 285 284 284 286
294 281 236 229 237 261 279 282 287 295 301 307 311 308 309 306 304 301 300 300 298 299 300 299 298 297 298 299 300 300 298 299 301 301 301 301 300 299 298 297 295 292 288 284 282 279 275 275 275
287 270 225 210 217 223 247 266 279 288 292 297 303 305 303 297 287 286 290 293 294 294 295 296 299 299 299 298 300 300 298 298 300 301 301 302 302 302 300 298 295 294 291 286 280 277 273 269 268
278 250 210 203 210 216 243 261 271 278 286 292 298 304 303 296 288 280 284 287 292 294 295 297 300 301 300 299 299 301 299 300 301 300 301 301 302 302 301 301 298 294 292 288 282 277 273 268 265
268 233 205 204 211 219 241 260 270 277 282 288 296 302 305 298 294 285 286 286 288 292 293 294 297 300 300 298 298 301 301 301 300 299 299 300 300 301 301 300 301 297 293 289 285 280 275 269 264
258 221 204 211 220 229 243 261 270 275 280 286 292 297 299 295 292 284 282 286 287 289 288 288 292 297 298 297 296 299 299 299 299 298 298 299 299 298 298 299 298 296 293 291 287 285 280 272 264
249 216 207 213 224 237 248 260 269 274 279 284 289 292 293 290 287 290 290 287 283 282 283 286 288 289 291 292 293 294 294 295 296 295 297 295 295 296 296 295 294 293 291 290 290 289 286 279 269
241 218 211 216 227 240 250 259 266 272 278 282 286 289 289 286 288 291 290 286 285 285 286 285 284 284 286 287 287 289 290 292 292 290 292 292 293 293 294 293 290 288 286 286 286 288 287 285 277
233 219 214 220 229 241 251 259 266 271 276 282 285 287 287 288 288 288 287 287 286 286 287 287 285 284 285 286 288 287 288 288 287 289 289 290 291 291 291 289 286 285 284 282 282 282 283 284 280
229 222 220 224 233 243 252 261 268 274 278 281 283 286 289 289 287 286 286 286 288 288 288 288 288 288 288 288 288 289 290 291 291 290 290 290 290 289 288 286 285 283 282 281 280 280 279 281 281
221 222 221 225 235 244 252 260 267 273 278 282 284 287 290 290 288 288 288 288 290 289 288 288 289 289 289 288 288 289 290 291 291 291 291 291 291 289 288 286 284 282 281 279 278 278 278 280 281
213 218 220 228 235 242 252 263 270 277 282 284 286 287 288 287 286 286 287 288 288 288 289 289 288 288 289 289 290 290 290 290 290 291 292 291 291 290 288 286 283 281 280 279 278 277 278 279 280
204 216 227 237 238 244 256 271 278 280 279 281 283 285 286 286 285 286 287 288 288 289 289 290 290 290 290 290 290 290 290 290 291 291 291 291 290 289 287 285 283 281 280 279 278 279 279 280 280
206 225 242 251 248 254 262 269 276 276 276 274 277 280 284 286 287 288 290 291 292 292 293 293 293 292 292 292 292 292 292 292 292 291 291 290 289 287 286 284 282 281 279 278 277 277 278 279 279
248 250 263 280 271 267 269 271 273 269 269 262 261 274 283 286 288 290 292 292 293 294 294 294 295 295 295 294 294 294 293 293 292 291 290 289 287 285 284 282 281 280 279 277 276 275 275 276 277
267 284 300 311 312 314 307 297 290 279 263 250 252 271 286 294 296 297 297 297 296 296 296 296 296 296 296 296 296 295 295 294 293 292 291 289 287 285 282 281 280 279 278 276 275 274 273 274 273
319 326 328 328 329 326 326 323 321 307 277 262 262 277 294 302 303 303 304 304 304 303 303 302 301 300 299 298 298 298 297 297 296 295 294 292 291 288 285 283 281 279 277 275 273 272 271 270 270
349 349 339 334 339 340 341 342 339 329 308 254 259 284 302 307 311 314 315 315 314 312 310 308 307 305 304 303 302 301 300 299 298 298 297 296 295 293 290 287 284 281 277 274 272 271 270 268 266
352 349 344 341 349 350 354 358 4 5 34 72 345 326 325 324 328 330 327 323 320 318 317 315 313 311 310 309 308 306 305 303 302 300 300 298 296 295 293 291 287 283 279 275 273 270 268 266 264
336 333 333 338 350 358 2 20 27 41 59 42 16 355 345 343 340 336 333 330 328 326 325 323 321 319 317 315 313 311 309 307 305 303 301 299 297 295 293 291 288 284 279 275 272 270 266 264 262
323 321 325 335 345 357 16 33 39 38 37 23 5 356 351 349 345 341 338 335 333 331 329 327 325 322 320 318 315 313 311 309 306 304 302 300 298 295 293 291 288 284 279 275 271 269 266 262 259
330 320 322 330 340 354 7 16 18 21 20 8 359 355 352 348 344 341 339 336 334 332 329 328 326 323 321 318 316 314 312 310 307 304 302 300 297 295 292 290 287 284 280 274 270 266 263 261 259
347 340 333 331 337 336 346 354 2 11 11 3 358 355 350 346 342 340 337 335 333 331 329 327 325 323 320 318 317 314 312 310 308 305 302 299 296 294 291 288 286 283 280 276 271 267 263 261 259
349 352 348 340 339 335 334 344 359 11 6 1 357 352 347 343 339 337 335 333 331 330 328 326 324 323 322 320 319 316 314 312 309 307 303 300 297 294 291 287 284 281 278 276 272 268 264 262 259
341 348 357 354 344 336 335 347 1 7 3 358 352 347 342 339 336 334 332 331 330 329 328 327 326 325 324 323 322 320 318 315 313 310 306 303 299 295 292 288 284 280 277 275 272 269 266 263 260
346 343 347 350 343 337 337 347 355 360 356 350 345 341 338 335 333 332 331 331 331 330 329 328 328 328 328 327 325 323 321 318 315 312 309 305 301 297 294 290 286 282 279 276 274 271 268 266 263
Height
5934 5933 5932 5933 5933 5932 5930 5930 5928 5928 5930 5930 5929 5928 5927 5927 5927 5928 5925 5923 5922 5920 5920 5920 5919 5919 5919 5918 5917 5917 5916 5915 5915 5914 5913 5913 5912 5912 5911 5910 5909 5908 5907 5907 5906 5905 5904 5903 5901
5934 5932 5932 5932 5932 5931 5930 5928 5927 5926 5928 5929 5928 5928 5927 5926 5925 5924 5923 5922 5920 5920 5920 5919 5919 5918 5918 5917 5917 5916 5916 5915 5914 5913 5912 5912 5911 5910 5909 5909 5908 5907 5906 5905 5905 5904 5903 5902 5901
5934 5932 5932 5932 5931 5930 5929 5927 5925 5924 5925 5926 5927 5927 5926 5925 5923 5922 5922 5921 5920 5920 5920 5919 5919 5918 5917 5917 5916 5915 5914 5914 5913 5912 5911 5910 5909 5908 5908 5907 5906 5905 5904 5903 5903 5902 5901 5901 5900
5933 5932 5932 5932 5929 5928 5926 5925 5923 5923 5924 5925 5926 5926 5924 5924 5922 5921 5920 5920 5919 5919 5919 5918 5917 5917 5916 5915 5914 5914 5913 5912 5911 5910 5909 5908 5907 5906 5905 5904 5903 5903 5902 5901 5900 5900 5899 5899 5898
5932 5931 5931 5930 5928 5926 5924 5923 5922 5922 5922 5923 5924 5924 5923 5923 5921 5919 5919 5919 5918 5918 5917 5917 5916 5915 5914 5913 5912 5911 5910 5909 5908 5907 5906 5905 5904 5903 5902 5901 5900 5900 5899 5898 5897 5897 5896 5896 5895
5931 5931 5930 5929 5926 5923 5922 5921 5920 5920 5920 5921 5922 5921 5921 5921 5920 5919 5918 5917 5917 5916 5915 5915 5914 5913 5912 5911 5910 5909 5907 5906 5905 5904 5903 5902 5901 5900 5899 5898 5897 5896 5895 5894 5894 5893 5893 5892 5892
5930 5929 5928 5926 5924 5921 5921 5919 5918 5918 5918 5919 5919 5918 5917 5916 5918 5917 5916 5915 5914 5914 5913 5912 5911 5910 5909 5908 5906 5905 5904 5903 5902 5901 5899 5898 5897 5896 5895 5894 5893 5892 5891 5890 5889 5889 5888 5888 5887
5927 5927 5925 5923 5920 5919 5918 5918 5917 5916 5916 5916 5916 5916 5914 5913 5914 5914 5914 5913 5912 5912 5910 5909 5908 5907 5906 5904 5903 5902 5901 5899 5898 5897 5895 5894 5893 5892 5891 5889 5888 5887 5886 5885 5884 5884 5883 5883 5882
5923 5924 5921 5919 5917 5915 5914 5914 5914 5913 5912 5912 5912 5912 5911 5910 5911 5910 5911 5910 5910 5909 5907 5906 5905 5904 5902 5901 5899 5898 5896 5895 5894 5892 5891 5890 5888 5887 5886 5884 5883 5881 5880 5879 5878 5878 5877 5877 5876
5918 5919 5918 5915 5913 5911 5911 5911 5911 5910 5909 5908 5908 5908 5908 5906 5906 5905 5906 5906 5906 5905 5903 5902 5901 5900 5898 5896 5895 5893 5892 5891 5889 5888 5886 5885 5883 5881 5880 5879 5877 5875 5874 5873 5872 5871 5870 5870 5869
5912 5914 5913 5910 5908 5907 5907 5907 5907 5906 5905 5905 5904 5904 5904 5902 5900 5899 5899 5900 5901 5900 5899 5897 5897 5895 5894 5892 5890 5888 5887 5886 5885 5883 5880 5879 5878 5876 5874 5873 5871 5869 5868 5866 5864 5863 5862 5862 5862
5906 5908 5907 5906 5905 5904 5904 5904 5904 5903 5902 5901 5900 5900 5899 5898 5895 5894 5894 5893 5893 5892 5892 5892 5891 5889 5887 5886 5884 5883 5881 5880 5879 5877 5875 5873 5872 5870 5868 5866 5864 5863 5861 5860 5858 5856 5855 5855 5854
5899 5901 5901 5900 5900 5900 5900 5901 5901 5899 5899 5897 5896 5894 5894 5893 5891 5890 5889 5888 5888 5887 5886 5885 5883 5882 5880 5879 5877 5876 5874 5873 5871 5870 5869 5867 5865 5863 5861 5859 5858 5856 5854 5853 5852 5850 5849 5848 5847
5893 5894 5895 5896 5896 5896 5897 5897 5897 5896 5895 5893 5892 5890 5889 5888 5887 5886 5884 5883 5883 5882 5880 5879 5877 5875 5874 5872 5870 5869 5867 5865 5864 5863 5861 5859 5857 5855 5853 5851 5850 5848 5846 5845 5844 5843 5842 5841 5840
5887 5889 5891 5891 5892 5892 5893 5893 5893 5892 5891 5889 5887 5886 5885 5884 5882 5881 5880 5878 5877 5876 5875 5873 5872 5870 5868 5865 5863 5861 5860 5858 5856 5854 5852 5850 5848 5847 5845 5843 5841 5839 5837 5836 5836 5835 5834 5834 5833
5884 5886 5887 5888 5889 5889 5890 5889 5888 5887 5886 5885 5883 5882 5881 5880 5878 5877 5875 5874 5872 5871 5869 5868 5866 5864 5862 5859 5857 5855 5853 5850 5848 5846 5844 5842 5840 5838 5836 5834 5832 5830 5829 5828 5827 5826 5826 5825 5825
5882 5883 5884 5885 5885 5886 5886 5884 5884 5883 5881 5880 5878 5878 5877 5876 5874 5872 5871 5869 5867 5866 5864 5862 5860 5858 5856 5853 5850 5848 5845 5843 5840 5838 5836 5833 5831 5829 5827 5825 5823 5821 5820 5819 5818 5817 5817 5816 5816
5880 5881 5881 5881 5881 5881 5881 5879 5879 5878 5876 5875 5874 5874 5873 5872 5870 5869 5867 5865 5863 5861 5859 5857 5855 5852 5849 5846 5843 5840 5837 5834 5832 5829 5827 5824 5822 5820 5817 5815 5813 5812 5811 5810 5809 5809 5808 5807 5807
5879 5878 5878 5879 5878 5877 5876 5875 5873 5872 5870 5870 5870 5870 5870 5869 5868 5866 5864 5862 5859 5857 5854 5851 5848 5845 5842 5838 5835 5832 5829 5826 5823 5820 5817 5815 5813 5810 5808 5805 5804 5802 5801 5801 5800 5799 5799 5798 5798
5876 5876 5875 5875 5874 5873 5871 5869 5867 5866 5864 5865 5866 5867 5867 5866 5865 5863 5861 5859 5856 5853 5850 5846 5843 5839 5835 5831 5827 5824 5821 5817 5814 5811 5808 5805 5803 5801 5798 5796 5794 5793 5792 5791 5790 5789 5789 5789 5789
5874 5873 5873 5872 5870 5869 5868 5866 5863 5861 5861 5863 5864 5864 5864 5863 5861 5860 5857 5855 5852 5848 5845 5841 5837 5833 5829 5824 5820 5816 5812 5809 5805 5801 5798 5795 5792 5790 5788 5786 5784 5783 5782 5781 5780 5780 5780 5780 5780
5872 5871 5871 5870 5869 5867 5866 5863 5860 5858 5858 5860 5862 5862 5862 5860 5858 5856 5853 5850 5847 5844 5840 5836 5832 5827 5823 5818 5813 5809 5805 5801 5797 5793 5789 5785 5782 5780 5778 5776 5775 5773 5772 5771 5770 5770 5770 5770 5771
5871 5871 5870 5869 5868 5867 5865 5862 5861 5858 5858 5860 5860 5860 5859 5857 5855 5852 5849 5845 5842 5838 5834 5830 5826 5821 5816 5811 5806 5801 5797 5792 5788 5784 5780 5777 5773 5770 5768 5766 5765 5763 5762 5761 5761 5761 5760 5761 5761
5871 5870 5870 5869 5868 5867 5865 5862 5861 5859 5859 5859 5858 5857 5855 5853 5850 5847 5844 5840 5836 5832 5828 5823 5818 5813 5808 5803 5798 5793 5788 5784 5779 5775 5771 5768 5764 5761 5758 5756 5755 5753 5752 5751 5751 5751 5751 5752 5752
5870 5870 5869 5868 5867 5866 5864 5862 5861 5859 5858 5858 5856 5854 5851 5848 5845 5842 5839 5835 5830 5826 5821 5816 5811 5806 5800 5795 5789 5784 5780 5775 5770 5766 5762 5758 5754 5751 5748 5745 5744 5743 5742 5741 5741 5741 5742 5743 5744
5869 5869 5868 5867 5865 5864 5862 5861 5860 5858 5857 5855 5852 5849 5846 5844 5841 5837 5834 5829 5825 5820 5815 5810 5804 5799 5793 5787 5782 5777 5771 5766 5761 5757 5752 5748 5744 5741 5737 5734 5732 5731 5730 5730 5730 5731 5731 5732 5734
5868 5867 5866 5865 5863 5862 5861 5860 5858 5856 5855 5852 5848 5845 5843 5840 5836 5833 5829 5824 5820 5814 5809 5803 5798 5792 5786 5780 5774 5769 5763 5758 5752 5747 5743 5738 5734 5730 5726 5723 5720 5719 5718 5718 5718 5719 5720 5721 5723
5868 5866 5865 5863 5861 5860 5859 5857 5857 5854 5852 5848 5845 5842 5839 5836 5832 5829 5824 5820 5815 5809 5803 5797 5791 5785 5779 5772 5766 5760 5754 5748 5743 5737 5732 5727 5722 5718 5714 5711 5708 5706 5705 5705 5705 5706 5707 5709 5710
5867 5866 5863 5861 5859 5858 5856 5857 5854 5852 5848 5845 5842 5839 5836 5833 5829 5825 5821 5816 5810 5804 5798 5791 5784 5778 5771 5765 5758 5752 5745 5739 5733 5727 5721 5716 5711 5706 5702 5699 5696 5694 5692 5691 5691 5692 5693 5695 5697
5865 5863 5862 5860 5858 5856 5854 5856 5851 5848 5845 5843 5840 5837 5834 5830 5826 5822 5817 5811 5805 5799 5792 5785 5778 5771 5764 5757 5750 5743 5736 5730 5723 5716 5710 5704 5699 5694 5690 5686 5683 5681 5679 5678 5677 5677 5678 5679 5681